Stations météo

réclame
Mon MeteoGroup
Ile Rousse, France (7753): Température de l'air & dewpoint: 12.06.2018 13:00:00 - 18.06.2018 13:00:00 (CEST)Ile Rousse, France (7753): Vitesse du vent & gusts: 12.06.2018 13:00:00 - 18.06.2018 13:00:00 (CEST)Ile Rousse, France (7753): Direction du vent: 12.06.2018 13:00:00 - 18.06.2018 13:00:00 (CEST)Ile Rousse, France (7753): reduced air pressure: 12.06.2018 13:00:00 - 18.06.2018 13:00:00 (CEST)Ile Rousse, France (7753): visibility: 12.06.2018 13:00:00 - 18.06.2018 13:00:00 (CEST)Ile Rousse, France (7753): Quantités de précipitations: 12.06.2018 13:00:00 - 18.06.2018 13:00:00 (CEST)
Date & Time tt [°C] td [°C] ff [km/h] ff [knt] fx [km/h] fx [knt] dd ppp [hPa] vv [km] rr [mm]
18.06.2018 13:00:00 22,6 19,0 13 7 24 13 NNE 1015,5 - 0,0
18.06.2018 12:00:00 22,5 19,1 16 9 26 14 NNE 1015,8 - 0,0
18.06.2018 11:00:00 22,0 19,0 14 7 24 13 NNE 1015,6 - 0,0
18.06.2018 10:00:00 21,6 18,8 20 11 28 15 NNE 1015,1 - 0,0
18.06.2018 09:00:00 22,3 19,1 19 10 27 14 ENE 1014,8 - 0,0
18.06.2018 08:00:00 20,8 18,4 18 10 24 13 E 1014,8 15 0,0
18.06.2018 07:00:00 20,0 18,5 16 9 21 11 E 1014,4 - 0,0
18.06.2018 06:00:00 19,9 18,6 9 5 13 7 NE 1014,0 - 0,0
18.06.2018 05:00:00 19,8 18,6 5 3 16 9 SW 1013,8 - -
18.06.2018 04:00:00 19,7 17,8 5 3 8 4 WSW 1013,5 - 0,0
18.06.2018 03:00:00 19,8 17,9 2 1 8 4 NNW 1013,9 - 0,0
18.06.2018 02:00:00 20,0 17,8 3 2 5 3 W 1014,3 - 0,0
18.06.2018 01:00:00 20,2 18,0 5 3 18 10 SE 1014,6 - 0,0
18.06.2018 00:00:00 20,5 18,1 8 4 11 6 ESE 1015,0 - 0,0
17.06.2018 23:00:00 20,4 17,8 8 4 13 7 E 1014,7 - -
17.06.2018 22:00:00 20,4 18,7 13 7 24 13 WSW 1014,5 - 0,0
17.06.2018 21:00:00 21,0 18,8 15 8 34 18 WSW 1014,1 - 0,0
17.06.2018 20:00:00 22,3 19,1 16 9 29 16 W 1013,7 15 -
17.06.2018 19:00:00 23,5 18,8 18 10 37 20 W 1013,3 - 0,0
17.06.2018 18:00:00 23,8 19,1 22 12 39 21 W 1013,3 - 0,0
17.06.2018 17:00:00 24,6 19,4 18 10 26 14 W 1013,6 - -
17.06.2018 16:00:00 24,4 18,3 11 6 21 11 NNW 1014,2 - 0,0
17.06.2018 15:00:00 23,9 18,1 9 5 21 11 NNW 1014,3 - 0,0
17.06.2018 14:00:00 24,4 18,8 11 6 21 11 NW 1014,6 15 -
17.06.2018 13:00:00 23,4 19,5 9 5 22 12 WNW 1014,8 - 0,0
17.06.2018 12:00:00 23,3 19,2 9 5 18 10 N 1014,7 - 0,0
17.06.2018 11:00:00 22,7 19,3 11 6 21 11 NNE 1014,3 15 -
17.06.2018 10:00:00 22,9 17,8 16 9 21 11 ENE 1014,1 - 0,0
17.06.2018 09:00:00 21,8 18,0 11 6 16 9 ENE 1014,3 - 0,0
17.06.2018 08:00:00 21,2 18,6 9 5 13 7 ENE 1014,3 - -
17.06.2018 07:00:00 20,0 18,3 4 2 5 3 SE 1013,6 - 0,0
17.06.2018 06:00:00 19,5 18,0 2 1 8 4 NW 1013,3 - 0,0
17.06.2018 05:00:00 19,8 18,5 2 1 8 5 N 1013,3 - 0,0
17.06.2018 04:00:00 19,9 18,2 4 2 8 4 NNW 1013,3 - 0,0
17.06.2018 03:00:00 19,9 17,9 5 3 9 5 E 1013,3 - 0,0
17.06.2018 02:00:00 20,1 17,7 8 4 11 6 ESE 1013,2 - -
17.06.2018 01:00:00 20,5 17,5 5 3 11 6 WNW 1013,8 - 0,0
17.06.2018 00:00:00 21,0 16,8 9 5 13 7 E 1013,6 - 0,0
16.06.2018 23:00:00 21,0 17,8 9 5 28 15 WSW 1013,2 - -
16.06.2018 22:00:00 21,4 15,0 16 9 21 11 SW 1012,9 - 0,0
16.06.2018 21:00:00 21,9 16,6 13 7 24 13 WSW 1012,2 - 0,0
16.06.2018 20:00:00 22,9 17,8 18 10 31 17 WSW 1012,1 - -
16.06.2018 19:00:00 24,3 19,4 18 10 29 16 W 1011,8 - 0,0
16.06.2018 18:00:00 24,8 19,4 18 10 29 16 W 1011,6 - 0,0
16.06.2018 17:00:00 25,0 19,6 18 10 28 15 W 1011,9 - -
16.06.2018 16:00:00 24,7 19,8 21 11 29 16 W 1012,0 - 0,0
16.06.2018 15:00:00 25,1 18,3 13 7 21 11 WNW 1012,2 - 0,0
16.06.2018 14:00:00 24,1 18,1 11 6 22 12 N 1012,3 - -
16.06.2018 13:00:00 23,3 17,7 11 6 21 11 NNE 1012,4 - 0,0
16.06.2018 12:00:00 23,1 16,4 13 7 21 11 NNE 1012,6 - 0,0
16.06.2018 11:00:00 22,6 16,2 11 6 21 11 NNE 1012,6 20 -
16.06.2018 10:00:00 22,9 14,2 13 7 18 10 NE 1012,5 - 0,0
16.06.2018 09:00:00 23,8 12,1 9 5 18 10 ENE 1012,2 - 0,0
16.06.2018 08:00:00 23,2 12,2 5 3 11 6 E 1011,8 20 -
16.06.2018 07:00:00 23,4 10,8 4 2 4 2 ESE 1011,7 - 0,0
16.06.2018 06:00:00 22,4 10,2 2 1 8 4 SW 1011,7 - 0,0
16.06.2018 05:00:00 21,8 11,2 5 3 9 5 SW 1011,6 - -
16.06.2018 04:00:00 21,2 14,8 8 4 11 6 SE 1011,7 - 0,0
16.06.2018 03:00:00 20,6 14,3 4 2 9 5 ESE 1012,1 - 0,0
16.06.2018 02:00:00 21,3 15,6 9 5 13 7 SW 1011,9 - -
16.06.2018 01:00:00 21,3 14,5 9 5 13 7 WSW 1012,0 - 0,0
16.06.2018 00:00:00 21,6 14,5 8 4 11 6 SW 1012,0 - 0,0
15.06.2018 23:00:00 22,0 12,8 5 3 13 7 WSW 1011,9 - -
15.06.2018 22:00:00 21,8 12,6 11 6 18 10 SW 1011,6 - 0,0
15.06.2018 21:00:00 21,6 15,0 15 8 22 12 WSW 1011,3 - 0,0
15.06.2018 20:00:00 23,4 17,2 11 6 21 11 W 1010,9 - -
15.06.2018 19:00:00 23,7 17,7 15 8 21 11 W 1010,7 - 0,0
15.06.2018 18:00:00 24,8 18,0 11 6 21 11 WNW 1010,3 - 0,0
15.06.2018 17:00:00 24,1 17,6 10 6 19 10 NW 1010,4 - 0,0
15.06.2018 16:00:00 24,4 19,0 13 7 22 12 W 1010,5 - 0,0
15.06.2018 15:00:00 24,7 17,7 11 6 24 13 WNW 1010,4 - 0,0
15.06.2018 14:00:00 23,6 18,5 18 10 28 15 W 1010,7 - -
15.06.2018 13:00:00 23,4 17,6 11 6 27 15 W 1010,6 - 0,0
15.06.2018 12:00:00 23,9 14,0 21 11 37 20 NE 1010,3 - 0,0
15.06.2018 11:00:00 23,4 14,9 23 12 33 18 NE 1009,9 - 0,0
15.06.2018 10:00:00 25,1 13,6 21 11 27 15 ENE 1009,8 - 0,0
15.06.2018 09:00:00 23,6 15,1 15 8 21 11 ENE 1009,9 - 0,0
15.06.2018 08:00:00 23,0 14,6 9 5 18 10 E 1009,6 20 -
15.06.2018 07:00:00 22,3 12,5 16 9 22 12 E 1009,3 - 0,0
15.06.2018 06:00:00 21,4 12,3 11 6 15 8 ESE 1009,3 - 0,0
15.06.2018 05:00:00 21,0 12,7 9 5 15 8 E 1009,2 18 -
15.06.2018 04:00:00 20,9 14,1 11 6 18 10 SE 1009,2 - 0,0
15.06.2018 03:00:00 20,6 15,2 10 5 13 7 ESE 1009,6 - 0,0
15.06.2018 02:00:00 20,4 16,0 9 5 15 8 E 1009,6 - -
15.06.2018 01:00:00 20,5 16,3 9 5 18 10 SE 1009,7 - 0,0
15.06.2018 00:00:00 20,4 16,4 11 6 16 9 SSE 1010,1 - 0,0
14.06.2018 23:00:00 20,5 17,9 4 2 8 4 SSE 1009,9 - -
14.06.2018 22:00:00 20,6 18,4 8 4 15 8 WSW 1009,4 - 0,0
14.06.2018 21:00:00 21,4 17,4 10 5 16 9 NW 1008,9 - 0,0
14.06.2018 20:00:00 22,9 15,2 5 3 13 7 NNE 1008,2 20 -
14.06.2018 19:00:00 24,3 12,6 8 4 16 9 ENE 1007,9 - 0,0
14.06.2018 18:00:00 23,6 14,6 8 4 21 11 ENE 1007,7 - 0,0
14.06.2018 17:00:00 22,4 17,3 9 5 18 10 NNE 1007,9 - -
14.06.2018 16:00:00 22,9 17,1 7 4 23 12 NNE 1007,9 - 0,0
14.06.2018 15:00:00 22,3 18,1 13 7 23 12 NNE 1008,0 - 0,0
14.06.2018 14:00:00 21,9 17,9 18 10 25 13 NNE 1008,2 18 0,0
14.06.2018 13:00:00 21,5 17,7 15 8 24 13 NNE 1008,1 - 0,0
14.06.2018 12:00:00 21,1 17,5 15 8 26 14 NNE 1007,8 - 0,0
14.06.2018 11:00:00 20,5 17,3 18 10 28 15 NE 1007,3 20 0,0
14.06.2018 10:00:00 20,6 16,2 18 10 26 14 NNE 1007,1 - 0,0
14.06.2018 09:00:00 20,5 15,7 18 10 24 13 ENE 1006,8 - 0,0
14.06.2018 08:00:00 20,0 15,8 11 6 18 10 E 1006,7 20 -
14.06.2018 07:00:00 19,1 15,0 13 7 22 12 NE 1006,5 - 0,0
14.06.2018 06:00:00 18,0 14,3 21 11 26 14 E 1006,0 - 0,0
14.06.2018 05:00:00 17,6 14,3 15 8 18 10 E 1005,8 - -
14.06.2018 04:00:00 18,0 15,4 9 5 13 7 E 1005,9 - 0,0
14.06.2018 03:00:00 18,3 15,0 9 5 13 7 E 1006,1 - 0,0
14.06.2018 02:00:00 18,6 14,9 5 3 12 7 ESE 1006,2 - 0,0
14.06.2018 01:00:00 18,8 15,3 9 5 18 10 SSE 1006,3 - 0,0
14.06.2018 00:00:00 18,7 15,6 8 4 11 6 SE 1006,1 - 0,0
13.06.2018 23:00:00 18,6 15,5 4 2 11 6 SE 1006,0 - -
13.06.2018 22:00:00 18,7 15,4 9 5 11 6 ESE 1005,6 - 0,0
13.06.2018 21:00:00 19,2 15,7 8 4 15 8 E 1005,0 - 0,0
13.06.2018 20:00:00 20,9 16,1 11 6 21 11 ENE 1004,7 18 -
13.06.2018 19:00:00 21,3 16,3 16 9 29 16 ENE 1004,3 - 0,0
13.06.2018 18:00:00 21,3 16,3 13 7 28 15 E 1004,3 - 0,0
13.06.2018 17:00:00 17,8 14,9 22 12 29 16 ESE 1004,5 - 0,4
13.06.2018 16:00:00 18,7 14,6 13 7 28 15 E 1004,7 - 0,2
13.06.2018 15:00:00 19,3 13,9 13 7 37 20 E 1004,9 - 0,0
13.06.2018 14:00:00 22,2 17,1 18 10 29 16 ENE 1005,0 18 -
13.06.2018 13:00:00 20,3 16,3 5 3 16 9 W 1005,2 - 0,0
13.06.2018 12:00:00 20,6 14,3 9 5 18 10 NNE 1005,2 - 0,0
13.06.2018 11:00:00 20,5 15,3 15 8 22 12 NNE 1005,4 18 -
13.06.2018 10:00:00 20,3 13,7 5 3 31 17 SW 1005,2 - 0,0
13.06.2018 09:00:00 18,1 13,4 18 10 46 25 S 1005,9 - 0,8
13.06.2018 08:00:00 18,7 13,8 15 8 26 14 SW 1006,0 18 -
13.06.2018 07:00:00 19,2 12,7 9 5 31 17 E 1005,5 - 0,0
13.06.2018 06:00:00 19,5 12,5 16 9 29 16 SSW 1005,3 - 0,0
13.06.2018 05:00:00 19,6 12,4 18 10 35 19 SW 1006,1 18 -
13.06.2018 04:00:00 17,9 13,2 28 15 34 18 S 1007,1 - 2,0
13.06.2018 03:00:00 18,5 14,0 18 10 41 22 WSW 1007,6 - 0,2
13.06.2018 02:00:00 20,6 10,7 26 14 39 21 SW 1007,6 - -
13.06.2018 01:00:00 20,4 10,8 26 14 46 25 SW 1008,0 - 0,0
13.06.2018 00:00:00 21,1 10,9 28 15 44 24 SW 1008,5 - 0,0
12.06.2018 23:00:00 21,5 11,8 19 10 48 26 SW 1009,1 - 0,0
12.06.2018 22:00:00 21,4 12,8 31 17 54 29 SW 1008,7 - 0,0
12.06.2018 21:00:00 21,0 14,9 28 15 55 30 SW 1008,1 - 0,0
12.06.2018 20:00:00 21,3 16,7 41 22 68 37 WSW 1007,6 - -
12.06.2018 19:00:00 22,2 17,1 42 23 70 38 WSW 1007,6 - 0,0
12.06.2018 18:00:00 23,4 17,6 37 20 70 38 WSW 1007,6 - 0,0
12.06.2018 17:00:00 23,2 17,4 42 23 70 38 WSW 1007,6 - -
12.06.2018 16:00:00 23,4 18,1 45 24 78 42 WSW 1007,6 - 0,0
12.06.2018 15:00:00 23,8 18,9 46 25 77 42 WSW 1007,8 - 0,0
12.06.2018 14:00:00 24,0 18,4 45 24 72 39 WSW 1007,7 18 0,0
12.06.2018 13:00:00 23,6 18,0 35 19 67 36 WSW 1008,1 - 0,0

tt = Température de l'air
td = dewpoint
ff = Vitesse du vent
fx = gusts
dd = Direction du vent
ppp = reduced air pressure
vv = visibility
rr = Quantités de précipitations

stations d'obs. à proximité